Taos, NM

10:49 AM MDT on April 20, 2018 (GMT -0600)
Taos Municipal

Weather History for KSKX - January, 2014

Change the Weather History Date:

Thursday, January 16, 2014

  Actual Average Record
Temperature  
Mean Temperature 29 °F -  
Max Temperature 46 °F 40 °F 60 °F (2000)
Min Temperature 12 °F 10 °F -7 °F (2007)
Degree Days  
Heating Degree Days 36    
Moisture  
Dew Point 10 °F    
Average Humidity 55    
Maximum Humidity 85    
Minimum Humidity 22    
Precipitation  
Precipitation 0.00 in - - ()
Sea Level Pressure  
Sea Level Pressure 30.25 in    
Wind  
Wind Speed 4 mph (North)    
Max Wind Speed 18 mph    
Max Gust Speed 22 mph    
Visibility 10 miles    
Events      
Averages and records for this station are not official NWS values.
T = Trace of Precipitation, MM = Missing Value Source: NWS Daily Summary

Daily Weather History Graph

Daily Weather History Graph

Search for Another Location

Airport or City:

Astronomy

Jan. 16, 2014 Rise Set
Actual Time 7:13 AM MST 5:12 PM MST
Civil Twilight 6:45 AM MST 5:40 PM MST
Nautical Twilight 6:13 AM MST 6:11 PM MST
Astronomical Twilight 5:42 AM MST 6:42 PM MST
Moon 6:03 PM MST (1/16) 7:10 AM MST (1/16)
Length of Visible Light 10h 54m
Length of Day
9h 58m
Full, 100% of the Moon is Illuminated
Jan 16
Full
Jan 23
Last Quarter
Jan 30
New
Feb 6
First Quarter
Feb 14
Full

Hourly Weather History & Observations

Time (MST) Temp. Windchill Dew Point Humidity Pressure Visibility Wind Dir Wind Speed Gust Speed Precip Events Conditions
12:15 AM 19.4 °F 14.3 °F 10.4 °F 68% 30.24 in 10.0 mi North 3.5 mph - N/A   Clear
12:35 AM 21.2 °F - 12.2 °F 68% 30.25 in 10.0 mi Calm Calm - N/A   Clear
12:55 AM 19.4 °F - 10.4 °F 68% 30.24 in 10.0 mi Calm Calm - N/A   Clear
1:15 AM 19.4 °F - 12.2 °F 74% 30.25 in 10.0 mi Calm Calm - N/A   Clear
1:35 AM 17.6 °F 12.3 °F 10.4 °F 73% 30.26 in 10.0 mi NNE 3.5 mph - N/A   Clear
1:55 AM 15.8 °F 7.2 °F 10.4 °F 79% 30.26 in 10.0 mi NE 5.8 mph - N/A   Clear
2:15 AM 17.6 °F 10.7 °F 10.4 °F 73% 30.27 in 10.0 mi NNE 4.6 mph - N/A   Clear
2:35 AM 17.6 °F - 10.4 °F 73% 30.27 in 10.0 mi Calm Calm - N/A   Clear
2:55 AM 17.6 °F 9.3 °F 10.4 °F 73% 30.27 in 10.0 mi East 5.8 mph - N/A   Clear
3:15 AM 17.6 °F 10.7 °F 10.4 °F 73% 30.26 in 10.0 mi ENE 4.6 mph - N/A   Clear
3:35 AM 17.6 °F - 12.2 °F 79% 30.25 in 10.0 mi Calm Calm - N/A   Clear
3:55 AM 15.8 °F 7.2 °F 10.4 °F 79% 30.25 in 10.0 mi NE 5.8 mph - N/A   Clear
4:15 AM 15.8 °F - 8.6 °F 73% 30.25 in 10.0 mi Calm Calm - N/A   Clear
4:35 AM 17.6 °F 9.3 °F 10.4 °F 73% 30.25 in 10.0 mi ENE 5.8 mph - N/A   Clear
4:55 AM 15.8 °F 10.2 °F 8.6 °F 73% 30.25 in 10.0 mi ENE 3.5 mph - N/A   Clear
5:15 AM 12.2 °F - 8.6 °F 85% 30.25 in 10.0 mi Calm Calm - N/A   Clear
5:35 AM 15.8 °F - 8.6 °F 73% 30.25 in 10.0 mi Calm Calm - N/A   Clear
5:55 AM 15.8 °F - 8.6 °F 73% 30.25 in 10.0 mi Calm Calm - N/A   Clear
6:15 AM 19.4 °F - 10.4 °F 68% 30.25 in 10.0 mi Calm Calm - N/A   Clear
6:35 AM 12.2 °F 4.3 °F 1.4 °F 62% 30.26 in 10.0 mi North 4.6 mph - N/A   Clear
6:55 AM 12.2 °F 6.1 °F 6.8 °F 79% 30.26 in 10.0 mi North 3.5 mph - N/A   Clear
7:15 AM 12.2 °F - 6.8 °F 79% 30.27 in 10.0 mi Calm Calm - N/A   Clear
7:35 AM 15.8 °F 10.2 °F 10.4 °F 79% 30.28 in 10.0 mi North 3.5 mph - N/A   Clear
7:55 AM 15.8 °F - 8.6 °F 73% 30.28 in 10.0 mi Calm Calm - N/A   Clear
8:15 AM 17.6 °F - 12.2 °F 79% 30.30 in 10.0 mi Calm Calm - N/A   Clear
8:35 AM 19.4 °F - 14.0 °F 80% 30.30 in 10.0 mi Calm Calm - N/A   Clear
8:55 AM 21.2 °F 14.9 °F 12.2 °F 68% 30.31 in 10.0 mi WSW 4.6 mph - N/A   Clear
9:15 AM 24.8 °F 17.9 °F 10.4 °F 54% 30.31 in 10.0 mi NW 5.8 mph - N/A   Clear
9:35 AM 26.6 °F 22.6 °F 14.0 °F 59% 30.31 in 10.0 mi NW 3.5 mph - N/A   Clear
9:55 AM 30.2 °F - 12.2 °F 47% 30.31 in 10.0 mi Calm Calm - N/A   Clear
10:15 AM 32.0 °F 28.7 °F 12.2 °F 44% 30.31 in 10.0 mi NW 3.5 mph - N/A   Clear
10:35 AM 33.8 °F - 12.2 °F 41% 30.30 in 10.0 mi Calm Calm - N/A   Clear
10:55 AM 35.6 °F - 10.4 °F 35% 30.29 in 10.0 mi Calm Calm - N/A   Clear
11:15 AM 37.4 °F 33.8 °F 12.2 °F 36% 30.29 in 10.0 mi NW 4.6 mph - N/A   Clear
11:35 AM 41.0 °F 32.8 °F 12.2 °F 31% 30.27 in 10.0 mi North 16.1 mph 19.6 mph N/A   Clear
11:55 AM 42.8 °F 34.5 °F 10.4 °F 27% 30.25 in 10.0 mi North 18.4 mph 21.9 mph N/A   Clear
12:15 PM 42.8 °F 35.8 °F 10.4 °F 27% 30.24 in 10.0 mi North 13.8 mph 20.7 mph N/A   Clear
12:35 PM 42.8 °F 37.0 °F 12.2 °F 29% 30.23 in 10.0 mi North 10.4 mph - N/A   Clear
12:55 PM 44.6 °F 38.4 °F 10.4 °F 25% 30.21 in 10.0 mi NNW 12.7 mph - N/A   Clear
1:15 PM 44.6 °F 39.2 °F 10.4 °F 25% 30.20 in 10.0 mi NNW 10.4 mph - N/A   Clear
1:35 PM 44.6 °F 39.2 °F 8.6 °F 23% 30.20 in 10.0 mi NNW 10.4 mph - N/A   Clear
1:55 PM 46.4 °F 42.4 °F 8.6 °F 22% 30.19 in 10.0 mi North 8.1 mph - N/A   Clear
2:15 PM 46.4 °F 41.5 °F 8.6 °F 22% 30.19 in 10.0 mi NNW 10.4 mph - N/A   Clear
2:35 PM 46.4 °F 41.5 °F 8.6 °F 22% 30.18 in 10.0 mi NW 10.4 mph - N/A   Clear
2:55 PM 46.4 °F 41.1 °F 8.6 °F 22% 30.18 in 10.0 mi NNW 11.5 mph - N/A   Clear
3:15 PM 46.4 °F 41.9 °F 10.4 °F 23% 30.18 in 10.0 mi NNW 9.2 mph - N/A   Clear
3:35 PM 46.4 °F 41.5 °F 8.6 °F 22% 30.19 in 10.0 mi North 10.4 mph - N/A   Clear
3:55 PM 44.6 °F 38.1 °F 12.2 °F 27% 30.19 in 10.0 mi NNW 13.8 mph - N/A   Clear
4:15 PM 42.8 °F 36.2 °F 12.2 °F 29% 30.19 in 10.0 mi NNW 12.7 mph - N/A   Clear
4:35 PM 39.2 °F 32.0 °F 12.2 °F 33% 30.20 in 10.0 mi NNW 11.5 mph - N/A   Clear
4:55 PM 37.4 °F 30.8 °F 12.2 °F 36% 30.21 in 10.0 mi NNW 9.2 mph - N/A   Clear
5:15 PM 35.6 °F 28.6 °F 10.4 °F 35% 30.21 in 10.0 mi NNW 9.2 mph - N/A   Clear
5:35 PM 32.0 °F 24.2 °F 10.4 °F 41% 30.22 in 10.0 mi NNW 9.2 mph - N/A   Clear
5:55 PM 30.2 °F 21.9 °F 12.2 °F 47% 30.22 in 10.0 mi NNW 9.2 mph - N/A   Clear
6:15 PM 30.2 °F 21.9 °F 10.4 °F 44% 30.23 in 10.0 mi NNW 9.2 mph - N/A   Clear
6:35 PM 28.4 °F 19.1 °F 12.2 °F 51% 30.23 in 10.0 mi NW 10.4 mph - N/A   Clear
6:55 PM 28.4 °F 19.1 °F 12.2 °F 51% 30.24 in 10.0 mi NW 10.4 mph - N/A   Clear
7:15 PM 28.4 °F 21.2 °F 12.2 °F 51% 30.24 in 10.0 mi North 6.9 mph - N/A   Clear
7:35 PM 26.6 °F 16.8 °F 10.4 °F 51% 30.24 in 10.0 mi NNW 10.4 mph - N/A   Clear
7:55 PM 24.8 °F - 10.4 °F 54% 30.25 in 10.0 mi Calm Calm - N/A   Clear
8:15 PM 21.2 °F 14.9 °F 10.4 °F 63% 30.25 in 10.0 mi ENE 4.6 mph - N/A   Clear
8:35 PM 19.4 °F 12.8 °F 10.4 °F 68% 30.25 in 10.0 mi NE 4.6 mph - N/A   Clear
8:55 PM 21.2 °F 13.6 °F 10.4 °F 63% 30.26 in 10.0 mi NE 5.8 mph - N/A   Clear
9:15 PM 19.4 °F 10.4 °F 10.4 °F 68% 30.27 in 10.0 mi NNE 6.9 mph - N/A   Clear
9:35 PM 21.2 °F 14.9 °F 10.4 °F 63% 30.28 in 10.0 mi North 4.6 mph - N/A   Clear
9:55 PM 21.2 °F 14.9 °F 10.4 °F 63% 30.29 in 10.0 mi NNE 4.6 mph - N/A   Clear
10:15 PM 21.2 °F - 12.2 °F 68% 30.28 in 10.0 mi Calm Calm - N/A   Clear
10:35 PM 23.0 °F - 12.2 °F 63% 30.29 in 10.0 mi Calm Calm - N/A   Clear
10:55 PM 21.2 °F 14.9 °F 10.4 °F 63% 30.28 in 10.0 mi North 4.6 mph - N/A   Clear
11:15 PM 17.6 °F 9.3 °F 8.6 °F 68% 30.28 in 10.0 mi North 5.8 mph - N/A   Clear
11:35 PM 15.8 °F 6.1 °F 8.6 °F 73% 30.28 in 10.0 mi NNE 6.9 mph - N/A   Clear
11:55 PM 17.6 °F 9.3 °F 10.4 °F 73% 30.27 in 10.0 mi NNE 5.8 mph - N/A   Clear